Regional Weather Roundup
Issued by NWS

Home | Current Version | Previous Version | Text Only | Print | Product List | Glossary Off
Versions: 1 2 3 4 5 6 7 8 9 10 11 12 13 14 15 16 17 18 19 20 21 22 23 24 25 26 27 28 29 30 31 32 33 34 35 36 37 38 39 40 41 42 43 44 45 46 47 48 49 50

000
ASUS45 KSLC 311410
RWRUT

UTAH REGIONAL WEATHER ROUNDUP
NATIONAL WEATHER SERVICE SALT LAKE CITY UT
800 AM MDT SUN AUG 31 2014

UTZ001>011-023>025-311500-

NORTHERN UTAH

CITY           SKY/WX    TMP DP  RH WIND       PRES   REMARKS
HILL AFB       PTSUNNY   61  45  57 N8        30.01R
LOGAN          SUNNY     55  52  89 E3        30.00R
OGDEN          CLOUDY    61  46  57 N5        30.00R
PROVO AIRPORT  NOT AVBL
SALT LAKE CITY PTSUNNY   61  47  59 N8        29.98R
VERNAL         MOSUNNY   56  49  77 N6        29.96R
WENDOVER       SUNNY     64  39  39 NW12      30.02R
HEBER CITY     PTSUNNY   59  43  55 E5        30.02R
WEST JORDAN    MOSUNNY   63  48  59 NW6       30.01R

$$

UTZ012>022-026-027-311500-

SOUTHERN UTAH

CITY           SKY/WX    TMP DP  RH WIND       PRES   REMARKS
BRYCE CANYON   SUNNY     60  35  39 CALM      30.15R
CEDAR CITY     SUNNY     64  33  31 SW7       30.03R
MILFORD        SUNNY     63  39  41 N16       30.00R
MOAB/CYNLANDS  SUNNY     75  33  21 VRB6      29.87R
PRICE          MOSUNNY   64  36  35 W3        29.98R
ST GEORGE      MOSUNNY   72  41  33 CALM      29.88R

$$

REGIONAL REPORTS     COLORADO/ARIZONA

CITY           SKY/WX    TMP DP  RH WIND       PRES   REMARKS
CRAIG, CO      CLOUDY    54  49  83 SE12      30.04S
GRAND JUNCTION PTSUNNY   63  45  51 SE8       29.91R
RIFLE          CLOUDY    58  50  75 NE6       29.96R
MONTROSE       PTSUNNY   68  38  33 SE10      30.01R
CORTEZ         SUNNY     57  43  59 E6        30.10R
PAGE, AZ       SUNNY     78  36  21 NW5       29.95R
GRAND CANYON   SUNNY     57  39  51 S5        30.17R
KINGMAN        CLEAR     76  39  26 SW9       29.92R
FLAGSTAFF      SUNNY     57  43  59 SW6       30.24R

$$

REGIONAL REPORTS    NEVADA/IDAHO/WYOMING

CITY           SKY/WX    TMP DP  RH WIND       PRES   REMARKS
LAS VEGAS, NV  PTCLDY    81  27  14 S10       29.77R
ELY            CLEAR     53  32  44 W6        30.12R
ELKO           CLEAR     48  38  68 CALM      30.09R
POCATELLO, ID  PTSUNNY   53  49  86 SW16      30.03R
BURLEY         SUNNY     52  44  74 SW16G23   30.03R
EVANSTON, WY   LGT RAIN  48  45  89 S12       30.08S
ROCK SPRINGS   LGT RAIN  47  41  80 W16G25    30.09R

$$


USA.gov is the U.S. government's official web portal to all federal, state and local government web resources and services.